Regional Weather Roundup
Issued by NWS

Home | Current Version | Previous Version | Text Only | Print | Product List | Glossary On
Versions: 1 2 3 4 5 6 7 8 9 10 11 12 13 14 15 16 17 18 19 20 21 22 23 24 25 26 27 28 29 30 31 32 33 34 35 36 37 38 39 40 41 42 43 44 45 46 47 48 49 50
000
ASUS43 KOAX 270110
RWRNE

WEATHER ROUNDUP FOR NEBRASKA
NATIONAL WEATHER SERVICE OMAHA NE
800 PM CDT WED JUL 26 2017

NOTES: SATELLITE DATA IS BEING USED TO AUGMENT CLOUD COVER ABOVE
       12000 FEET.
       "FAIR" INDICATES FEW OR NO CLOUDS BELOW 12,000 FEET WITH NO
       SIGNIFICANT WEATHER AND/OR OBSTRUCTIONS TO VISIBILITY.


NEZ001>004-019>022-054>056-270200-
NEBRASKA PANHANDLE

CITY           SKY/WX    TMP DP  RH WIND       PRES   REMARKS
SCOTTSBLUFF    CLOUDY    81  58  45 NE10      30.17S
ALLIANCE       CLOUDY    78  59  51 NE16      30.16S
CHADRON        CLOUDY    82  50  32 SE12      30.13S
GORDON         FAIR      78  55  44 E7        30.16S
KIMBALL        CLOUDY    76  58  53 E9        30.23S
SIDNEY         CLOUDY    80  60  50 E13       30.19R
$$

NEZ057>060-069>072-079>082-270200-
SOUTHWEST NEBRASKA

CITY           SKY/WX    TMP DP  RH WIND       PRES   REMARKS
NORTH PLATTE   CLOUDY    80  67  64 NE6       30.09R
IMPERIAL       SUNNY     78  63  59 E7        30.12R
LEXINGTON      MOCLDY    78  69  74 E9        30.07R
MCCOOK         CLOUDY    79  68  69 E10       30.07R
OGALLALA       LGT RAIN  73  69  87 SE5       30.13R
$$

NEZ005>010-023>029-035>040-094-270200-
NORTH CENTRAL NEBRASKA

CITY           SKY/WX    TMP DP  RH WIND       PRES   REMARKS
VALENTINE      CLOUDY    83  54  36 NE15      30.10S
AINSWORTH      CLOUDY    78  65  65 E8        30.11S
BROKEN BOW     CLOUDY    79  68  69 E7        30.08R
O`NEILL        CLOUDY    78  64  60 NE5       30.08R
ORD            CLOUDY    78  71  79 NE3       30.05R
THEDFORD       PTSUNNY   78  69  75 NE3       30.12S
$$

NEZ041-046>049-061>064-073>077-083>087-270200-
SOUTH CENTRAL NEBRASKA

CITY           SKY/WX    TMP DP  RH WIND       PRES   REMARKS
GRAND ISLAND   CLOUDY    77  74  90 NE9       30.04R
AURORA         CLOUDY    76  73  89 NE7       30.03S
HASTINGS       CLOUDY    77  71  82 NE8       30.04S
HEBRON         CLOUDY    76  73  88 NE9       29.99S
HOLDREGE       CLOUDY    76  69  79 NE9       30.06R
KEARNEY        CLOUDY    77  70  79 NE9       30.06R
YORK           CLOUDY    75  73  94 CALM      30.02S
$$

NEZ011>018-030>034-042>045-270200-
NORTHEAST NEBRASKA

CITY           SKY/WX    TMP DP  RH WIND       PRES   REMARKS
NORFOLK        CLOUDY    80  69  69 NE5       30.03R
ALBION         RAIN      78  74  88 CALM      30.05S
BLAIR          HVY RAIN  75  73  93 N3        30.00S
COLUMBUS       CLOUDY    77  74  90 E3        30.02R
FREMONT        CLOUDY    76  73  91 CALM      30.00S
TEKAMAH        CLOUDY    79  73  82 CALM      29.98S
WAYNE          PTCLDY    80  76  86 N6        30.02R
$$

NEZ050>053-065>068-078-088>093-270200-
SOUTHEAST NEBRASKA

CITY           SKY/WX    TMP DP  RH WIND       PRES   REMARKS
LINCOLN        CLOUDY    77  73  87 NE6       29.99F
OMAHA EPPLEY   MOCLDY    77  73  87 N3        29.98S
BEATRICE       CLOUDY    76  74  95 NE8       29.97F
FALLS CITY     LGT RAIN  77  76  96 CALM      29.95F
NEBRASKA CITY  DRIZZLE   76  76 100 NE3       29.97F
PLATTSMOUTH    CLOUDY    75  74  96 NE5       29.98F FOG
$$

NEZ044-045-051>053-067-270200-
OMAHA AREA

CITY           SKY/WX    TMP DP  RH WIND       PRES   REMARKS
OMAHA EPPLEY   MOCLDY    77  73  87 N3        29.98S
BLAIR          HVY RAIN  75  73  93 N3        30.00S
FREMONT        CLOUDY    76  73  91 CALM      30.00S
MILLARD        CLOUDY    78  76  94 CALM      29.98S
OFFUTT AFB     MOCLDY    76  74  93 NE3       29.97F
PLATTSMOUTH    CLOUDY    75  74  96 NE5       29.98F FOG
WAHOO          MOCLDY    75  73  94 CALM      30.00R
$$



USA.gov is the U.S. government's official web portal to all federal, state and local government web resources and services.